Location: Cañada de la Miga
(34.7595°N, 106.2317°W)
Time: 19:06:40
(UTC+00:00)

X-37B - Visible Passes

Search period start: 19 October 2021 00:00
Search period end: 29 October 2021 00:00
Orbit: 385 x 389 km, 45.0° (Epoch: 17 October)

Date Brightness Start Highest point End Pass type
(mag) Time Alt. Az. Time Alt. Az. Time Alt. Az.
19 Oct 2.8 00:52:08 10° WNW 00:54:25 18° NNW 00:56:42 10° NNE visible
20 Oct 3.1 01:31:40 10° NNW 01:33:15 13° N 01:34:28 11° NNE visible
21 Oct 3.3 02:10:12 10° NNW 02:10:57 13° NNW 02:10:57 13° NNW visible
22 Oct 3.0 01:11:50 10° NNW 01:13:27 13° N 01:15:03 10° NE visible
23 Oct 2.7 01:49:55 10° NNW 01:51:41 18° N 01:51:41 18° N visible
24 Oct 2.8 00:51:43 10° NNW 00:53:38 15° N 00:55:34 10° NE visible
24 Oct 3.6 02:27:46 10° NW 02:28:17 14° NW 02:28:17 14° NW visible
25 Oct 1.8 01:29:34 10° NW 01:32:20 27° NNE 01:32:39 26° NNE visible
26 Oct 2.3 02:07:34 10° WNW 02:09:26 32° WNW 02:09:26 32° WNW visible
27 Oct 1.0 01:09:17 10° NW 01:12:21 45° NNE 01:14:02 22° E visible
28 Oct 1.6 01:47:34 10° WNW 01:50:35 41° SW 01:51:08 36° S visible
